Time,TemperatureF,DewpointF,PressureIn,WindDirection,WindDirectionDegrees,WindSpeedMPH,WindSpeedGustMPH,Humidity,HourlyPrecipIn,Conditions,Clouds,dailyrainin,SoftwareType,DateUTC
2014-12-19 00:22:00,38.0,31.0,30.00,South,173,4.0,13.0,76,0.00,,,0.00,,2014-12-19 05:22:00,
2014-12-19 00:43:00,37.0,30.0,30.01,SW,229,1.0,8.0,76,0.00,,,0.00,,2014-12-19 05:43:00,
2014-12-19 00:52:00,37.0,30.0,30.01,WNW,286,0.0,9.0,77,0.00,,,0.00,,2014-12-19 05:52:00,
2014-12-19 01:13:00,37.0,30.0,30.01,West,281,2.0,7.0,77,0.00,,,0.00,,2014-12-19 06:13:00,
2014-12-19 01:22:00,36.0,29.0,30.01,SSW,208,1.0,6.0,76,0.00,,,0.00,,2014-12-19 06:22:00,
2014-12-19 01:42:00,36.0,29.0,30.01,SE,146,1.0,7.0,76,0.00,,,0.00,,2014-12-19 06:42:00,
2014-12-19 01:52:00,36.0,29.0,30.01,North,11,0.0,3.0,75,0.00,,,0.00,,2014-12-19 06:52:00,
2014-12-19 02:23:00,35.0,28.0,30.00,WSW,248,1.0,9.0,76,0.00,,,0.00,,2014-12-19 07:23:00,
2014-12-19 02:42:00,35.0,28.0,30.00,West,269,2.0,9.0,76,0.00,,,0.00,,2014-12-19 07:42:00,
2014-12-19 02:52:00,35.0,28.0,30.00,NE,53,1.0,8.0,76,0.00,,,0.00,,2014-12-19 07:52:00,
2014-12-19 03:11:00,35.0,29.0,30.00,WNW,294,1.0,8.0,77,0.00,,,0.00,,2014-12-19 08:11:00,
2014-12-19 03:22:00,35.0,29.0,30.00,WSW,243,1.0,7.0,77,0.00,,,0.00,,2014-12-19 08:22:00,
2014-12-19 03:42:00,35.0,29.0,30.00,West,276,0.0,6.0,77,0.00,,,0.00,,2014-12-19 08:42:00,
2014-12-19 03:52:00,35.0,29.0,30.01,SSW,205,0.0,7.0,78,0.00,,,0.00,,2014-12-19 08:52:00,
2014-12-19 04:11:00,35.0,29.0,30.01,SW,231,1.0,6.0,79,0.00,,,0.00,,2014-12-19 09:11:00,
2014-12-19 04:22:00,35.0,29.0,30.01,SW,221,0.0,9.0,78,0.00,,,0.00,,2014-12-19 09:22:00,
2014-12-19 04:43:00,35.0,29.0,30.01,SSW,203,1.0,6.0,77,0.00,,,0.00,,2014-12-19 09:43:00,
2014-12-19 04:53:00,35.0,29.0,30.00,West,266,2.0,7.0,77,0.00,,,0.00,,2014-12-19 09:53:00,
2014-12-19 05:14:00,35.0,29.0,30.01,WSW,255,2.0,9.0,77,0.00,,,0.00,,2014-12-19 10:14:00,
2014-12-19 05:23:00,35.0,28.0,30.01,WSW,258,2.0,7.0,76,0.00,,,0.00,,2014-12-19 10:23:00,
2014-12-19 05:44:00,35.0,28.0,30.01,West,274,3.0,7.0,76,0.00,,,0.00,,2014-12-19 10:44:00,
2014-12-19 05:53:00,34.0,27.0,30.01,WSW,252,1.0,6.0,76,0.00,,,0.00,,2014-12-19 10:53:00,
2014-12-19 06:12:00,34.0,27.0,30.01,West,260,1.0,7.0,76,0.00,,,0.00,,2014-12-19 11:12:00,
2014-12-19 06:22:00,34.0,27.0,30.01,SW,224,3.0,8.0,76,0.00,,,0.00,,2014-12-19 11:22:00,
2014-12-19 06:42:00,34.0,28.0,30.02,West,274,1.0,6.0,77,0.00,,,0.00,,2014-12-19 11:42:00,
2014-12-19 06:53:00,33.0,26.0,30.02,West,261,3.0,10.0,76,0.00,,,0.00,,2014-12-19 11:53:00,
2014-12-19 07:13:00,33.0,26.0,30.03,West,269,1.0,8.0,76,0.00,,,0.00,,2014-12-19 12:13:00,
2014-12-19 07:22:00,33.0,27.0,30.04,West,269,1.0,5.0,77,0.00,,,0.00,,2014-12-19 12:22:00,
2014-12-19 07:42:00,33.0,27.0,30.05,West,277,1.0,6.0,78,0.00,,,0.00,,2014-12-19 12:42:00,
2014-12-19 07:53:00,33.0,27.0,30.04,West,273,0.0,5.0,78,0.00,,,0.00,,2014-12-19 12:53:00,
2014-12-19 08:22:00,34.0,28.0,30.06,West,261,1.0,5.0,79,0.00,,,0.00,,2014-12-19 13:22:00,
2014-12-19 08:42:00,34.0,28.0,30.06,West,274,0.0,2.0,78,0.00,,,0.00,,2014-12-19 13:42:00,
2014-12-19 08:52:00,34.0,27.0,30.06,West,272,1.0,6.0,75,0.00,,,0.00,,2014-12-19 13:52:00,
2014-12-19 09:22:00,35.0,28.0,30.06,East,84,0.0,7.0,74,0.00,,,0.00,,2014-12-19 14:22:00,
2014-12-19 09:32:00,35.0,28.0,30.06,East,84,0.0,7.0,74,0.00,,,0.00,,2014-12-19 14:32:00,
2014-12-19 09:42:00,35.0,28.0,30.06,East,84,0.0,7.0,74,0.00,,,0.00,,2014-12-19 14:42:00,
2014-12-19 09:52:00,37.0,29.0,30.06,SSE,159,0.0,2.0,72,0.00,,,0.00,,2014-12-19 14:52:00,
2014-12-19 10:22:00,40.0,30.0,30.07,NE,50,1.0,4.0,66,0.00,,,0.00,,2014-12-19 15:22:00,
2014-12-19 10:44:00,40.0,30.0,30.07,SW,224,0.0,4.0,66,0.00,,,0.00,,2014-12-19 15:44:00,
2014-12-19 10:53:00,41.0,29.0,30.07,South,181,2.0,4.0,62,0.00,,,0.00,,2014-12-19 15:53:00,
2014-12-19 11:24:00,42.0,28.0,30.07,SSE,158,1.0,4.0,58,0.00,,,0.00,,2014-12-19 16:24:00,
2014-12-19 11:44:00,43.0,28.0,30.07,South,188,1.0,5.0,56,0.00,,,0.00,,2014-12-19 16:44:00,
2014-12-19 11:53:00,43.0,28.0,30.06,SSW,203,1.0,6.0,56,0.00,,,0.00,,2014-12-19 16:53:00,
2014-12-19 12:23:00,44.0,29.0,30.05,NE,35,0.0,4.0,56,0.00,,,0.00,,2014-12-19 17:23:00,
2014-12-19 12:42:00,45.0,30.0,30.04,North,6,0.0,4.0,56,0.00,,,0.00,,2014-12-19 17:42:00,
2014-12-19 12:53:00,45.0,30.0,30.04,SW,221,0.0,5.0,56,0.00,,,0.00,,2014-12-19 17:53:00,
2014-12-19 13:23:00,46.0,30.0,30.04,SSW,192,0.0,3.0,54,0.00,,,0.00,,2014-12-19 18:23:00,
2014-12-19 13:43:00,46.0,30.0,30.03,SE,146,1.0,3.0,54,0.00,,,0.00,,2014-12-19 18:43:00,
2014-12-19 13:53:00,46.0,30.0,30.04,SW,215,0.0,3.0,53,0.00,,,0.00,,2014-12-19 18:53:00,
2014-12-19 14:23:00,47.0,30.0,30.03,SW,233,3.0,7.0,52,0.00,,,0.00,,2014-12-19 19:23:00,
2014-12-19 14:52:00,46.0,30.0,30.02,SW,231,1.0,6.0,54,0.00,,,0.00,,2014-12-19 19:52:00,
2014-12-19 15:12:00,46.0,31.0,30.02,South,186,1.0,6.0,55,0.00,,,0.00,,2014-12-19 20:12:00,
2014-12-19 15:22:00,46.0,31.0,30.01,SSW,211,2.0,4.0,55,0.00,,,0.00,,2014-12-19 20:22:00,
2014-12-19 15:42:00,45.0,30.0,30.03,WSW,241,0.0,4.0,56,0.00,,,0.00,,2014-12-19 20:42:00,
2014-12-19 15:53:00,45.0,31.0,30.02,SSE,165,0.0,4.0,57,0.00,,,0.00,,2014-12-19 20:53:00,
2014-12-19 16:22:00,45.0,32.0,30.03,North,352,0.0,0.0,60,0.00,,,0.00,,2014-12-19 21:22:00,
2014-12-19 16:43:00,45.0,32.0,30.03,WSW,248,0.0,0.0,59,0.00,,,0.00,,2014-12-19 21:43:00,
2014-12-19 16:54:00,43.0,31.0,30.03,NE,53,0.0,0.0,63,0.00,,,0.00,,2014-12-19 21:54:00,
2014-12-19 17:24:00,42.0,31.0,30.04,ENE,65,0.0,0.0,66,0.00,,,0.00,,2014-12-19 22:24:00,
2014-12-19 17:43:00,41.0,31.0,30.04,ENE,65,0.0,0.0,67,0.00,,,0.00,,2014-12-19 22:43:00,
2014-12-19 17:53:00,41.0,31.0,30.04,ENE,65,0.0,0.0,68,0.00,,,0.00,,2014-12-19 22:53:00,
2014-12-19 18:22:00,40.0,31.0,30.05,ENE,65,0.0,0.0,70,0.00,,,0.00,,2014-12-19 23:22:00,
2014-12-19 18:54:00,40.0,31.0,30.06,ENE,66,0.0,0.0,71,0.00,,,0.00,,2014-12-19 23:54:00,